Torna al catalogo

ATLAS 5 CENTAUR DEB

LostHEO
NORAD 46862·DEBRIS·🇺🇸 United States

Lanciato Oct 17, 2018 da Cape Canaveral Space Force Station

Loading…

Prossimi Passaggi (prossime 24 ore)

TLE

ObsoletoSource: Space-Track

Epoca: Jul 13, 2024, 11:30 UTC

1 46862U 18079DT  24195.47924339 -.00000053  00000-0  00000+0 0  9991
2 46862  11.0677 129.2711 5109835 107.6729 312.4559  1.50438403 20320

Traccia ATLAS 5 CENTAUR DEB in tempo reale con AllMySat

Download on the App Store